SESAS ESGG-ZZZZ

Flight info

Callsign SESAS
Flight time N/A
Altitude
Route
Aircraft PC12

Departure

Time 2026-05-05 12:59
Airport Göteborg Landvetter Airport (ESGG)

Arrival

Time N/A
Airport ZZZZ
Time Latitude Longitude Altitude Speed Heading
2026-05-05 12:55 57.67270 12.29537 512 ft 0 kts 251°
2026-05-05 12:56 57.67268 12.29526 512 ft 6 kts 247°
2026-05-05 12:56 57.67292 12.29626 512 ft 24 kts 49°
2026-05-05 12:56 57.67374 12.29613 512 ft 17 kts 295°
2026-05-05 12:56 57.67435 12.29384 512 ft 18 kts 296°
2026-05-05 12:57 57.67461 12.29245 512 ft 6 kts 266°
2026-05-05 12:57 57.67461 12.29237 512 ft 0 kts 266°
2026-05-05 12:58 57.67460 12.29200 511 ft 11 kts 262°
2026-05-05 12:58 57.67298 12.28902 511 ft 68 kts 207°
2026-05-05 12:58 57.66693 12.28363 532 ft 118 kts 210°
2026-05-05 12:59 57.65787 12.27556 596 ft 171 kts 211°
2026-05-05 12:59 57.64618 12.26500 823 ft 195 kts 209°
2026-05-05 12:59 57.63398 12.25351 1459 ft 197 kts 212°
2026-05-05 13:00 57.61361 12.22291 1359 ft 186 kts 255°
2026-05-05 13:00 57.61525 12.20035 1288 ft 179 kts 299°
2026-05-05 13:01 57.65108 12.20430 1027 ft 219 kts 26°
2026-05-05 13:01 57.66443 12.21955 792 ft 228 kts 28°
2026-05-05 13:01 57.67673 12.23472 1107 ft 208 kts 31°
2026-05-05 13:01 57.68871 12.24920 1221 ft 198 kts 23°
2026-05-05 13:02 57.70053 12.26143 1450 ft 197 kts 25°
2026-05-05 13:02 57.71218 12.27452 1514 ft 189 kts 29°
2026-05-05 13:02 57.72126 12.29110 1466 ft 186 kts 54°
2026-05-05 13:02 57.72519 12.31362 1291 ft 172 kts 84°
2026-05-05 13:03 57.72200 12.33452 1073 ft 163 kts 144°
2026-05-05 13:03 57.71288 12.33365 1064 ft 131 kts 218°
2026-05-05 13:03 57.70597 12.32468 955 ft 105 kts 222°
2026-05-05 13:03 57.69976 12.31723 917 ft 107 kts 216°
2026-05-05 13:04 57.69279 12.31004 859 ft 116 kts 218°
2026-05-05 13:04 57.68580 12.30279 778 ft 114 kts 219°
2026-05-05 13:04 57.67927 12.29543 624 ft 101 kts 219°
2026-05-05 13:04 57.67362 12.28969 521 ft 82 kts 216°
2026-05-05 13:05 57.66886 12.28513 509 ft 90 kts 201°
2026-05-05 13:05 57.66162 12.27873 512 ft 135 kts 208°
2026-05-05 13:05 57.65248 12.27848 1063 ft 149 kts 135°
2026-05-05 13:05 57.65059 12.29734 1312 ft 164 kts 49°
2026-05-05 13:06 57.66059 12.30980 1185 ft 185 kts 20°
2026-05-05 13:06 57.67215 12.32062 1214 ft 185 kts 21°
2026-05-05 13:06 57.68339 12.33154 1206 ft 175 kts 22°
2026-05-05 13:06 57.69431 12.34001 954 ft 168 kts 12°
2026-05-05 13:07 57.70435 12.33620 967 ft 142 kts 302°
2026-05-05 13:07 57.70393 12.31955 898 ft 146 kts 234°
2026-05-05 13:07 57.69502 12.30980 853 ft 159 kts 207°
2026-05-05 13:07 57.68441 12.30072 749 ft 169 kts 215°
2026-05-05 13:08 57.67291 12.28975 742 ft 204 kts 211°
2026-05-05 13:08 57.65959 12.27902 932 ft 211 kts 210°
2026-05-05 13:08 57.64629 12.26647 1012 ft 219 kts 213°
2026-05-05 13:08 57.63184 12.26085 1401 ft 215 kts 177°
2026-05-05 13:09 57.62183 12.27814 1881 ft 205 kts 102°
2026-05-05 13:09 57.62302 12.30528 1606 ft 208 kts 53°
2026-05-05 13:09 57.63367 12.32176 1604 ft 194 kts 27°
2026-05-05 13:09 57.64549 12.33286 1630 ft 188 kts 20°
2026-05-05 13:10 57.65773 12.34317 1275 ft 195 kts 16°
2026-05-05 13:10 57.66915 12.35095 1019 ft 195 kts 13°
2026-05-05 13:14 57.67787 12.35535 1005 ft 186 kts
2026-05-05 13:14 57.69018 12.35818 1211 ft 175 kts 345°
2026-05-05 13:14 57.70000 12.34619 1100 ft 156 kts 306°
2026-05-05 13:14 57.70211 12.32746 888 ft 149 kts 253°
2026-05-05 13:15 57.69653 12.31112 763 ft 146 kts 234°
2026-05-05 13:15 57.68871 12.30141 725 ft 133 kts 201°
2026-05-05 13:15 57.67967 12.29599 633 ft 124 kts 214°
2026-05-05 13:15 57.67334 12.28943 524 ft 90 kts 214°
2026-05-05 13:16 57.66812 12.28455 509 ft 96 kts 204°
2026-05-05 13:16 57.66044 12.27804 574 ft 138 kts 207°
2026-05-05 13:16 57.65097 12.26974 901 ft 168 kts 209°
2026-05-05 13:16 57.64027 12.25898 1251 ft 171 kts 222°
2026-05-05 13:17 57.63385 12.24077 1515 ft 165 kts 261°
2026-05-05 13:17 57.63494 12.22014 1720 ft 164 kts 294°
2026-05-05 13:17 57.64314 12.20542 1707 ft 175 kts 335°
2026-05-05 13:17 57.65551 12.20670 1605 ft 187 kts 22°
2026-05-05 13:18 57.66530 12.22269 1398 ft 192 kts 40°
2026-05-05 13:18 57.67519 12.23911 1266 ft 188 kts 33°
2026-05-05 13:18 57.68496 12.25468 1092 ft 191 kts 36°
2026-05-05 13:18 57.69491 12.27068 1086 ft 181 kts 33°
2026-05-05 13:19 57.70385 12.28369 819 ft 160 kts 40°
2026-05-05 13:19 57.70769 12.30316 700 ft 172 kts 103°
2026-05-05 13:19 57.69975 12.31310 762 ft 134 kts 201°
2026-05-05 13:19 57.69078 12.30784 741 ft 138 kts 207°
2026-05-05 13:20 57.68284 12.30063 684 ft 104 kts 226°
2026-05-05 13:20 57.67730 12.29346 583 ft 95 kts 218°
2026-05-05 13:20 57.67186 12.28811 512 ft 79 kts 219°
2026-05-05 13:20 57.66830 12.28470 509 ft 29 kts 206°
2026-05-05 13:21 57.66778 12.28425 509 ft 16 kts 211°
2026-05-05 13:21 57.66442 12.28130 508 ft 89 kts 207°
2026-05-05 13:21 57.65739 12.27487 581 ft 132 kts 208°
2026-05-05 13:21 57.64783 12.26575 914 ft 168 kts 211°
2026-05-05 13:22 57.63718 12.25332 1342 ft 187 kts 230°
2026-05-05 13:22 57.63384 12.23145 1608 ft 181 kts 290°
2026-05-05 13:22 57.64355 12.21772 1554 ft 193 kts 358°
2026-05-05 13:22 57.65645 12.22468 1601 ft 201 kts 18°
2026-05-05 13:23 57.66892 12.23703 1610 ft 199 kts 29°
2026-05-05 13:23 57.68058 12.25108 1382 ft 199 kts 28°
2026-05-05 13:23 57.69205 12.26495 1321 ft 195 kts 27°
2026-05-05 13:23 57.69858 12.28400 1051 ft 174 kts 83°
2026-05-05 13:24 57.69461 12.30179 945 ft 137 kts 156°
2026-05-05 13:24 57.68599 12.30121 774 ft 120 kts 207°
2026-05-05 13:24 57.67933 12.29496 598 ft 97 kts 217°
2026-05-05 13:24 57.67364 12.28952 511 ft 65 kts 205°
2026-05-05 13:25 57.67017 12.28642 510 ft 48 kts 202°
2026-05-05 13:25 57.66795 12.28444 509 ft 34 kts 211°
2026-05-05 13:25 57.66640 12.28418 509 ft 14 kts 60°
2026-05-05 13:25 57.66773 12.28732 509 ft 37 kts 55°